Location: Newark
(49.3000°N, 9.4667°E)
Time: 01:22:29
(UTC+00:00)

Transit 2A Rocket - Pass Details

Date: 23 May 2019
Orbit: 586 x 917 km, 66.7° (Epoch: 23 June)

Event Time Altitude Azimuth Distance (km) Brightness Sun altitude
Rises 19:49:38 0° 279° (W) 3,556 9.5 -6.1°
Reaches altitude 10° 19:53:02 10° 297° (WNW) 2,609 9.3 -6.5°
Maximum altitude 19:57:10 18° 340° (NNW) 2,045 8.2 -7.0°
Drops below altitude 10° 20:01:12 10° 23° (NNE) 2,542 8.0 -7.4°
Sets 20:04:29 0° 41° (NE) 3,431 8.4 -7.8°
